Watsonville, CA

6:21 PM PDT on August 20, 2017 (GMT -0700)
Watsonville Municipal

Weather History for KWVI - February, 2014

Change the Weather History Date:

Tuesday, February 25, 2014

  Actual Average Record
Temperature  
Mean Temperature 54 °F 52 °F  
Max Temperature 60 °F 61 °F 76 °F (2016)
Min Temperature 48 °F 43 °F 33 °F (2017)
Degree Days  
Heating Degree Days 11    
Month to date heating degree days 293  
Since 1 July heating degree days 1715  
Cooling Degree Days 0    
Month to date cooling degree days 0  
Year to date cooling degree days 0  
Growing Degree Days 4 (Base 50)    
Moisture  
Dew Point 46 °F    
Average Humidity 77    
Maximum Humidity 93    
Minimum Humidity 60    
Precipitation  
Precipitation 0.00 in - 1.68 in (2004)
Month to date precipitation 2.26  
Year to date precipitation 2.31  
Since 1 July precipitation 3.38  
Sea Level Pressure  
Sea Level Pressure 29.98 in    
Wind  
Wind Speed 4 mph (WNW)    
Max Wind Speed 17 mph    
Max Gust Speed 23 mph    
Visibility 10 miles    
Events      
T = Trace of Precipitation, MM = Missing Value Source: NWS Daily Summary

Daily Weather History Graph

Daily Weather History Graph

Search for Another Location

Airport or City:

Trip Planner

Search our weather history database for the weather conditions in past years. The results will help you decide how hot, cold, wet, or windy it might be!

Date:

Astronomy

Feb. 25, 2014 Rise Set
Actual Time 6:43 AM PST 5:57 PM PST
Civil Twilight 6:17 AM PST 6:23 PM PST
Nautical Twilight 5:46 AM PST 6:53 PM PST
Astronomical Twilight 5:16 AM PST 7:24 PM PST
Moon 3:38 AM PST (2/25) 2:13 PM PST (2/25)
Length of Visible Light 12h 06m
Length of Day
11h 14m
Waning Crescent, 17% of the Moon is Illuminated
Feb 25
Waning Crescent
Mar 1
New
Mar 8
First Quarter
Mar 16
Full
Mar 23
Last Quarter

Hourly Weather History & Observations

Time (PST) Temp. Dew Point Humidity Pressure Visibility Wind Dir Wind Speed Gust Speed Precip Events Conditions
12:17 AM 50.0 °F 46.4 °F 87% 30.01 in 10.0 mi WNW 3.5 mph - N/A   Overcast
12:53 AM 50.0 °F 46.0 °F 86% 30.00 in 10.0 mi Calm Calm - N/A   Overcast
1:53 AM 50.0 °F 46.9 °F 89% 29.99 in 10.0 mi Calm Calm - N/A   Overcast
2:53 AM 50.0 °F 46.0 °F 86% 29.98 in 10.0 mi North 3.5 mph - N/A   Overcast
3:53 AM 48.9 °F 46.0 °F 90% 29.97 in 9.0 mi WNW 3.5 mph - N/A   Overcast
4:53 AM 48.9 °F 46.0 °F 90% 29.97 in 9.0 mi Calm Calm - N/A   Overcast
5:45 AM 48.2 °F 44.6 °F 87% 29.98 in 9.0 mi NNW 3.5 mph - N/A   Overcast
5:53 AM 48.0 °F 45.0 °F 89% 29.98 in 9.0 mi Calm Calm - N/A   Overcast
6:08 AM 48.2 °F 44.6 °F 87% 29.98 in 10.0 mi NNW 3.5 mph - N/A   Overcast
6:53 AM 48.0 °F 45.0 °F 89% 29.98 in 10.0 mi North 4.6 mph - N/A   Overcast
7:04 AM 48.2 °F 44.6 °F 87% 29.99 in 10.0 mi North 3.5 mph - N/A   Overcast
7:46 AM 48.2 °F 44.6 °F 87% 29.99 in 10.0 mi North 3.5 mph - N/A   Overcast
7:53 AM 48.0 °F 45.0 °F 89% 29.99 in 10.0 mi North 3.5 mph - N/A   Overcast
8:53 AM 51.1 °F 46.0 °F 83% 30.01 in 10.0 mi Calm Calm - N/A   Overcast
9:31 AM 53.6 °F 46.4 °F 77% 30.01 in 10.0 mi SSW 3.5 mph - N/A   Scattered Clouds
9:53 AM 54.0 °F 46.0 °F 75% 30.01 in 10.0 mi Calm Calm - N/A   Mostly Cloudy
10:05 AM 55.4 °F 46.4 °F 72% 30.00 in 10.0 mi Calm Calm - N/A   Scattered Clouds
10:53 AM 57.9 °F 46.0 °F 65% 30.00 in 10.0 mi Calm Calm - N/A   Clear
11:53 AM 60.1 °F 46.9 °F 62% 30.00 in 10.0 mi WSW 8.1 mph - N/A   Clear
12:53 PM 57.0 °F 46.9 °F 69% 29.98 in 10.0 mi SW 10.4 mph 19.6 mph N/A   Clear
1:53 PM 57.0 °F 46.9 °F 69% 29.98 in 10.0 mi SW 13.8 mph 21.9 mph N/A   Partly Cloudy
2:22 PM 55.4 °F 46.4 °F 72% 29.97 in 10.0 mi WSW 9.2 mph 18.4 mph N/A   Mostly Cloudy
2:53 PM 57.9 °F 46.9 °F 67% 29.96 in 10.0 mi West 9.2 mph - N/A   Mostly Cloudy
3:00 PM 57.2 °F 46.4 °F 67% 29.95 in 10.0 mi West 10.4 mph 18.4 mph N/A   Scattered Clouds
3:53 PM 55.0 °F 46.9 °F 74% 29.96 in 10.0 mi West 9.2 mph 17.3 mph N/A   Scattered Clouds
4:03 PM 55.4 °F 46.4 °F 72% 29.96 in 10.0 mi West 9.2 mph 21.9 mph N/A   Mostly Cloudy
4:53 PM 55.0 °F 46.9 °F 74% 29.97 in 10.0 mi West 8.1 mph - N/A   Overcast
5:53 PM 54.0 °F 46.9 °F 77% 29.97 in 10.0 mi West 8.1 mph - N/A   Overcast
6:53 PM 54.0 °F 46.9 °F 77% 29.97 in 10.0 mi Variable 5.8 mph - N/A   Overcast
7:53 PM 54.0 °F 46.9 °F 77% 29.97 in 10.0 mi WNW 3.5 mph - N/A   Overcast
8:53 PM 54.0 °F 46.9 °F 77% 29.97 in 10.0 mi WNW 4.6 mph - N/A   Overcast
9:04 PM 53.6 °F 46.4 °F 77% 29.97 in 10.0 mi WNW 4.6 mph - N/A   Overcast
9:53 PM 54.0 °F 46.9 °F 77% 29.95 in 10.0 mi NW 3.5 mph - N/A   Overcast
10:23 PM 53.6 °F 46.4 °F 77% 29.94 in 10.0 mi Calm Calm - N/A   Partly Cloudy
10:53 PM 53.1 °F 46.9 °F 80% 29.95 in 10.0 mi Calm Calm - N/A   Clear
11:53 PM 52.0 °F 46.9 °F 83% 29.98 in 10.0 mi WSW 3.5 mph - N/A   Mostly Cloudy